| time (UTC) | temp F | wind direction | speed knots | gust knots | rain 1hr in | rain 24hr in | rain mn in | humidity % | barometer mb |
| 20260508162045 | 54 | 124 | 4.3 | 7.0 | 0.00 | 0.06 | 0.06 | 67 | 1018.3 |
| 20260508161045 | 54 | 156 | 4.3 | 6.1 | 0.00 | 0.06 | 0.06 | 67 | 1018.4 |
| 20260508155045 | 54 | 197 | 4.3 | 7.0 | 0.00 | 0.06 | 0.06 | 64 | 1018.2 |
| 20260508154045 | 54 | 193 | 5.2 | 7.8 | 0.00 | 0.06 | 0.06 | 64 | 1018.0 |
| 20260508152045 | 54 | 144 | 4.3 | 7.0 | 0.00 | 0.06 | 0.06 | 67 | 1018.0 |
| 20260508151046 | 54 | 168 | 4.3 | 7.0 | 0.00 | 0.06 | 0.06 | 68 | 1018.0 |
| 20260508150042 | 54 | 350 | 4.3 | 7.0 | 0.00 | 0.06 | 0.06 | 67 | 1018.0 |
| 20260508145044 | 55 | 121 | 4.3 | 7.8 | 0.00 | 0.06 | 0.06 | 66 | 1017.8 |
| 20260508143542 | 56 | 136 | 4.3 | 7.0 | 0.00 | 0.06 | 0.06 | 66 | 1018.1 |
| 20260508142544 | 56 | 203 | 4.3 | 7.8 | 0.00 | 0.06 | 0.06 | 66 | 1017.9 |
| 20260508140542 | 56 | 163 | 3.5 | 6.1 | 0.00 | 0.06 | 0.06 | 63 | 1017.9 |
| 20260508134544 | 55 | 62 | 3.5 | 6.1 | 0.00 | 0.06 | 0.06 | 62 | 1017.9 |
| 20260508133541 | 55 | 75 | 4.3 | 6.1 | 0.00 | 0.06 | 0.06 | 64 | 1017.8 |
| 20260508132540 | 57 | 90 | 2.6 | 7.0 | 0.00 | 0.06 | 0.06 | 62 | 1017.5 |
| 20260508131540 | 56 | 196 | 3.5 | 6.1 | 0.00 | 0.06 | 0.06 | 60 | 1017.4 |
| 20260508130540 | 58 | 135 | 2.6 | 6.1 | 0.00 | 0.06 | 0.06 | 59 | 1017.3 |
| 20260508125541 | 56 | 201 | 3.5 | 5.2 | 0.00 | 0.06 | 0.06 | 61 | 1017.3 |
| 20260508123540 | 58 | 189 | 2.6 | 5.2 | 0.00 | 0.06 | 0.06 | 58 | 1017.3 |
| 20260508122540 | 57 | 168 | 2.6 | 5.2 | 0.00 | 0.06 | 0.06 | 60 | 1017.2 |
| 20260508121540 | 58 | 227 | 2.6 | 4.3 | 0.00 | 0.06 | 0.06 | 59 | 1017.4 |
| 20260508120542 | 57 | 209 | 1.7 | 6.1 | 0.00 | 0.06 | 0.06 | 60 | 1017.3 |
| 20260508115541 | 57 | 211 | 1.7 | 4.3 | 0.00 | 0.06 | 0.06 | 60 | 1017.3 |
| 20260508114540 | 56 | 164 | 1.7 | 4.3 | 0.00 | 0.06 | 0.06 | 62 | 1017.2 |
| 20260508113540 | 56 | 50 | 2.6 | 5.2 | 0.00 | 0.06 | 0.06 | 61 | 1017.0 |
| 20260508112541 | 56 | 39 | 1.7 | 4.3 | 0.00 | 0.06 | 0.06 | 62 | 1017.0 |
| 20260508111541 | 55 | 61 | 2.6 | 5.2 | 0.00 | 0.06 | 0.06 | 62 | 1017.0 |
| 20260508110541 | 55 | 82 | 1.7 | 4.3 | 0.00 | 0.06 | 0.06 | 63 | 1017.0 |
| 20260508105541 | 55 | 45 | 1.7 | 5.2 | 0.00 | 0.06 | 0.06 | 63 | 1017.0 |
| 20260508104542 | 54 | 63 | 2.6 | 5.2 | 0.00 | 0.06 | 0.06 | 63 | 1017.0 |
| 20260508103541 | 54 | 73 | 2.6 | 6.1 | 0.00 | 0.06 | 0.06 | 65 | 1016.8 |
| 20260508102541 | 53 | 45 | 3.5 | 6.1 | 0.00 | 0.06 | 0.06 | 64 | 1016.8 |
| 20260508101541 | 53 | 81 | 2.6 | 6.1 | 0.00 | 0.06 | 0.06 | 64 | 1016.7 |
| 20260508100542 | 53 | 44 | 2.6 | 6.1 | 0.00 | 0.06 | 0.06 | 65 | 1016.8 |
| 20260508095541 | 53 | 65 | 3.5 | 7.0 | 0.00 | 0.06 | 0.06 | 65 | 1016.7 |
| 20260508094540 | 53 | 62 | 2.6 | 6.1 | 0.00 | 0.06 | 0.06 | 65 | 1016.7 |
| 20260508093540 | 53 | 69 | 2.6 | 6.1 | 0.00 | 0.06 | 0.06 | 66 | 1016.5 |
| 20260508092540 | 53 | 50 | 3.5 | 6.1 | 0.00 | 0.06 | 0.06 | 68 | 1016.5 |
| 20260508091541 | 53 | 80 | 2.6 | 6.1 | 0.00 | 0.06 | 0.06 | 68 | 1016.4 |
| 20260508090541 | 53 | 46 | 2.6 | 6.1 | 0.00 | 0.06 | 0.06 | 67 | 1016.2 |
| 20260508085541 | 53 | 81 | 2.6 | 6.1 | 0.00 | 0.06 | 0.06 | 69 | 1016.2 |
| 20260508084540 | 52 | 59 | 2.6 | 5.2 | 0.00 | 0.06 | 0.06 | 68 | 1016.1 |
| 20260508083540 | 52 | 66 | 2.6 | 5.2 | 0.00 | 0.06 | 0.06 | 69 | 1016.2 |
| 20260508082539 | 52 | 79 | 2.6 | 5.2 | 0.00 | 0.06 | 0.06 | 68 | 1016.1 |
| 20260508081540 | 52 | 81 | 2.6 | 5.2 | 0.00 | 0.06 | 0.06 | 71 | 1016.0 |
| 20260508080541 | 51 | 49 | 2.6 | 4.3 | 0.00 | 0.06 | 0.06 | 70 | 1015.9 |
| 20260508075542 | 51 | 61 | 2.6 | 4.3 | 0.00 | 0.06 | 0.06 | 72 | 1015.8 |
| 20260508074540 | 51 | 79 | 1.7 | 6.1 | 0.00 | 0.06 | 0.06 | 73 | 1015.7 |
| 20260508073539 | 51 | 62 | 2.6 | 5.2 | 0.00 | 0.06 | 0.06 | 72 | 1015.4 |
| 20260508072540 | 50 | 66 | 2.6 | 7.0 | 0.00 | 0.06 | 0.06 | 73 | 1015.4 |
| 20260508071540 | 50 | 62 | 1.7 | 5.2 | 0.00 | 0.06 | 0.06 | 74 | 1015.3 |
| 20260508070542 | 50 | 88 | 2.6 | 6.1 | 0.00 | 0.06 | 0.06 | 73 | 1015.1 |
| 20260508063540 | 50 | 67 | 2.6 | 5.2 | 0.00 | 0.06 | 0.06 | 73 | 1014.7 |
| 20260508062539 | 49 | 89 | 2.6 | 5.2 | 0.00 | 0.06 | 0.06 | 74 | 1014.8 |
| 20260508061541 | 49 | 52 | 1.7 | 4.3 | 0.00 | 0.06 | 0.06 | 74 | 1014.6 |
| 20260508060540 | 49 | 68 | 1.7 | 4.3 | 0.00 | 0.06 | 0.06 | 75 | 1014.6 |
| 20260508055540 | 49 | 81 | 1.7 | 5.2 | 0.00 | 0.06 | 0.06 | 74 | 1014.5 |
| 20260508054540 | 49 | 86 | 1.7 | 5.2 | 0.00 | 0.06 | 0.06 | 75 | 1014.3 |
| 20260508053540 | 49 | 59 | 2.6 | 5.2 | 0.00 | 0.06 | 0.06 | 74 | 1014.3 |
| 20260508052540 | 49 | 93 | 1.7 | 5.2 | 0.00 | 0.06 | 0.06 | 75 | 1014.2 |
| 20260508051540 | 49 | 87 | 1.7 | 5.2 | 0.00 | 0.06 | 0.06 | 74 | 1014.2 |
| 20260508050540 | 49 | 88 | 2.6 | 4.3 | 0.00 | 0.06 | 0.06 | 74 | 1014.3 |
| 20260508045539 | 49 | 67 | 1.7 | 5.2 | 0.00 | 0.06 | 0.06 | 76 | 1014.1 |
| 20260508044540 | 49 | 76 | 1.7 | 5.2 | 0.00 | 0.06 | 0.06 | 76 | 1014.0 |
| 20260508043540 | 49 | 76 | 2.6 | 5.2 | 0.00 | 0.06 | 0.06 | 76 | 1013.9 |
| 20260508042540 | 49 | 92 | 1.7 | 4.3 | 0.00 | 0.06 | 0.06 | 71 | 1014.1 |
| 20260508041540 | 48 | 59 | 1.7 | 2.6 | 0.00 | 0.06 | 0.06 | 73 | 1013.9 |
| 20260508040541 | 48 | 68 | 1.7 | 5.2 | 0.00 | 0.06 | 0.06 | 76 | 1013.8 |
| 20260508035539 | 48 | 65 | 2.6 | 7.0 | 0.00 | 0.06 | 0.06 | 74 | 1013.9 |
| 20260508034539 | 48 | 70 | 2.6 | 7.0 | 0.00 | 0.06 | 0.06 | 75 | 1013.8 |
| 20260508033539 | 48 | 177 | 1.7 | 2.6 | 0.00 | 0.06 | 0.06 | 75 | 1013.7 |
| 20260508032539 | 49 | 197 | 1.7 | 2.6 | 0.00 | 0.06 | 0.06 | 80 | 1013.9 |
| 20260508030540 | 49 | 196 | 0.9 | 2.6 | 0.00 | 0.06 | 0.06 | 76 | 1013.8 |
| 20260508025539 | 49 | 205 | 1.7 | 2.6 | 0.00 | 0.06 | 0.06 | 77 | 1013.7 |
| 20260508024539 | 50 | 161 | 0.9 | 1.7 | 0.00 | 0.06 | 0.06 | 75 | 1013.6 |
| 20260508023539 | 50 | 96 | 1.7 | 1.7 | 0.00 | 0.06 | 0.06 | 72 | 1013.5 |
| 20260508020540 | 49 | 254 | 0.9 | 1.7 | 0.00 | 0.06 | 0.06 | 74 | 1013.5 |
| 20260508015542 | 49 | 236 | 0.9 | 2.6 | 0.00 | 0.06 | 0.06 | 74 | 1013.5 |
| 20260508014542 | 49 | 257 | 0.9 | 2.6 | 0.00 | 0.06 | 0.06 | 74 | 1013.3 |
| 20260508013540 | 49 | 241 | 0.9 | 2.6 | 0.00 | 0.06 | 0.06 | 74 | 1013.4 |
| 20260508012540 | 50 | 224 | 1.7 | 2.6 | 0.00 | 0.06 | 0.06 | 73 | 1013.3 |
| 20260508011539 | 49 | 199 | 0.9 | 1.7 | 0.00 | 0.06 | 0.06 | 74 | 1013.2 |
| 20260508010539 | 50 | 156 | 0.9 | 1.7 | 0.00 | 0.06 | 0.06 | 74 | 1013.4 |
| 20260508004539 | 50 | 192 | 0.9 | 1.7 | 0.00 | 0.06 | 0.06 | 73 | 1013.3 |
| 20260508003540 | 50 | 221 | 0.9 | 1.7 | 0.00 | 0.06 | 0.06 | 73 | 1013.2 |
| 20260508002543 | 50 | 229 | 1.7 | 2.6 | 0.00 | 0.06 | 0.06 | 74 | 1013.3 |
| 20260508000539 | 50 | 277 | 1.7 | 2.6 | 0.00 | 0.06 | 0.06 | 74 | 1013.2 |
| 20260507235541 | 50 | 257 | 1.7 | 2.6 | 0.00 | 0.06 | 0.06 | 74 | 1013.2 |
| 20260507234540 | 50 | 238 | 0.9 | 1.7 | 0.00 | 0.06 | 0.06 | 73 | 1013.2 |
| 20260507233540 | 50 | 266 | 0.9 | 1.7 | 0.00 | 0.06 | 0.06 | 71 | 1013.1 |
| 20260507232539 | 50 | 239 | 0.9 | 4.3 | 0.00 | 0.06 | 0.06 | 71 | 1013.1 |
| 20260507231540 | 50 | 286 | 1.7 | 4.3 | 0.00 | 0.06 | 0.06 | 72 | 1013.1 |
| 20260507230546 | 50 | 257 | 1.7 | 5.2 | 0.00 | 0.06 | 0.06 | 73 | 1013.1 |
| 20260507225541 | 50 | 295 | 2.6 | 5.2 | 0.00 | 0.06 | 0.06 | 73 | 1012.9 |
| 20260507224539 | 50 | 290 | 2.6 | 5.2 | 0.00 | 0.06 | 0.06 | 74 | 1012.9 |
| 20260507223541 | 50 | 300 | 2.6 | 5.2 | 0.00 | 0.06 | 0.06 | 74 | 1012.7 |
| 20260507222542 | 50 | 287 | 2.6 | 4.3 | 0.00 | 0.06 | 0.06 | 71 | 1012.8 |
| 20260507215540 | 50 | 289 | 2.6 | 4.3 | 0.00 | 0.06 | 0.06 | 71 | 1012.9 |
| 20260507214540 | 51 | 285 | 2.6 | 4.3 | 0.00 | 0.06 | 0.06 | 72 | 1012.9 |
| 20260507213539 | 51 | 290 | 3.5 | 5.2 | 0.00 | 0.06 | 0.06 | 71 | 1012.6 |
| 20260507212540 | 51 | 289 | 2.6 | 5.2 | 0.00 | 0.06 | 0.06 | 72 | 1012.6 |
| 20260507211539 | 51 | 289 | 2.6 | 6.1 | 0.00 | 0.06 | 0.06 | 72 | 1012.6 |
| 20260507210539 | 51 | 286 | 3.5 | 5.2 | 0.00 | 0.06 | 0.06 | 72 | 1012.5 |
| 20260507205538 | 51 | 284 | 2.6 | 5.2 | 0.00 | 0.06 | 0.06 | 73 | 1012.4 |
| 20260507203539 | 50 | 256 | 0.9 | 0.9 | 0.00 | 0.06 | 0.06 | 81 | 1012.2 |
| 20260507202540 | 49 | 257 | 0.9 | 2.6 | 0.00 | 0.06 | 0.06 | 81 | 1012.1 |
| 20260507200539 | 50 | 259 | 0.9 | 1.7 | 0.00 | 0.06 | 0.06 | 79 | 1012.0 |
| 20260507194538 | 50 | 282 | 0.0 | 0.0 | 0.00 | 0.06 | 0.06 | 78 | 1011.9 |
| 20260507192538 | 51 | 282 | 0.0 | 0.0 | 0.00 | 0.06 | 0.06 | 76 | 1011.6 |
| 20260507190538 | 51 | 282 | 0.0 | 0.0 | 0.00 | 0.06 | 0.06 | 73 | 1011.5 |
| 20260507185538 | 51 | 282 | 0.0 | 2.6 | 0.00 | 0.06 | 0.06 | 73 | 1011.5 |
| 20260507183538 | 51 | 305 | 0.9 | 2.6 | 0.00 | 0.06 | 0.06 | 74 | 1011.4 |
| 20260507180538 | 51 | 275 | 1.7 | 4.3 | 0.00 | 0.06 | 0.06 | 80 | 1011.4 |
| 20260507174538 | 50 | 284 | 1.7 | 6.1 | 0.00 | 0.06 | 0.06 | 86 | 1011.2 |
| 20260507173538 | 50 | 281 | 4.3 | 7.0 | 0.00 | 0.06 | 0.06 | 85 | 1011.3 |
| 20260507172537 | 51 | 283 | 4.3 | 7.0 | 0.00 | 0.06 | 0.06 | 82 | 1011.3 |
| 20260507171538 | 51 | 276 | 2.6 | 7.0 | 0.00 | 0.06 | 0.06 | 80 | 1011.2 |
| 20260507170540 | 51 | 290 | 2.6 | 5.2 | 0.00 | 0.06 | 0.06 | 79 | 1011.1 |
| 20260507165538 | 51 | 297 | 2.6 | 6.1 | 0.00 | 0.06 | 0.06 | 80 | 1011.1 |
| 20260507164537 | 52 | 293 | 4.3 | 7.0 | 0.00 | 0.06 | 0.06 | 77 | 1011.0 |
| 20260507163539 | 52 | 295 | 5.2 | 7.8 | 0.00 | 0.06 | 0.06 | 78 | 1011.0 |
| 20260507162537 | 54 | 270 | 1.7 | 6.1 | 0.00 | 0.06 | 0.06 | 74 | 1011.1 |